Location: Kumla
(59.1265°N, 15.1401°E)
Time: 15:40:35
(UTC+01:00)

A-11 Canister half - Pass Details

Date: 10 December 2023
Orbit: 1526 x 1682 km, 47.3° (Epoch: 24 February)

Event Time Altitude Azimuth Distance (km) Brightness Sun altitude
Rises 23:51:47 0° 278° (W) 4,929 11.7 -53.7°
Enters shadow 23:52:20 - 277° (W) 4,782 11.6 -53.7°
Reaches altitude 10° 23:55:43 10° 266° (W) 3,926 - -53.7°
Maximum altitude 00:03:07 24° 218° (SW) 2,914 - -53.7°
Drops below altitude 10° 00:10:23 10° 169° (S) 3,838 - -53.6°
Sets 00:14:12 0° 157° (SSE) 4,795 - -53.5°
